Friday, October 24, 2014
23:55 UTC
  |  Log In   |  Register Free
Airport Search:

Newnan Coweta County Airport
(KCCO)

Newnan Coweta County Airport Diagram
No Airport Diagram Available

FAA data valid effective September 18, 2014 - November 13, 2014 (unless otherwise noted).

 
 
 
 
 
 
 
 
 
 
 
 
 
 

Current Aviation Weather for Newnan Coweta County Airport (KCCO)

The most recent METAR observation for KCCO was updated at: 2309
METAR Summary (Translated METAR)
KCCO
242255Z AUTO 00000KT 10SM CLR 19/11 A3001 RMK AO2 T01850109
KFFC
242253Z AUTO 00000KT 10SM CLR 15/11 A3001 RMK AO2 SLP162 T01500111
(10.3 nm NE from KCCO)
KLGC
242255Z AUTO 00000KT 10SM CLR 18/12 A3001 RMK AO2 T01760121
(23.7 nm SW from KCCO)
TAF
No TAF information found within 50 nm of KCCO
  Airport Weather Conditions for KCCO

 Current Weather at CCO
68° F
Fair
North winds at 0.0 mph
CCO NOAA Radar

Pressure: 30.01 in
Humidity: 59%
Wind: Calm
Dew Point: 52.9°F
Visibility: 10.00 mi


Airport Weather Forecast for KCCO

Translated METAR and TAF for KCCO
Translated METAR for KCCO (2350 UTC 24 October 2014)
found at http://aviationweather.gov/adds/metars/
 
METAR text: KCCO 242335Z AUTO 00000KT 10SM CLR 16/11 A3002 RMK AO2 T01630112
Conditions at: KCCO (NEWNAN , GA, US) observed 2335 UTC 24 October 2014
Temperature: 16.3°C (61°F)
Dewpoint: 11.2°C (52°F) [RH = 72%]
Pressure (altimeter): 30.02 inches Hg (1016.7 mb)
Winds: calm
Visibility: 10 or more miles (16+ km)
Ceiling: at least 12,000 feet AGL
Clouds: sky clear below 12,000 feet AGL
Weather: automated observation with no human augmentation;
there may or may not be significant weather present at this time
Translated TAF for KCCO

There is no translated TAF available for this airport

Find All Airport Services Find A Hotel Find A Rental Car Find A Golf Course Find A Restaurant $100 Hamburger



FBO's on the Field
FBO Company Facility Photos Services Transportation Aviation Fuel Prices: Prices include tax
Catering Weather Repair Courtesy Rental Type 100LL JetA JetA+ MOGAS 8087
 
CCO Airport Services

This FBO has not yet been rated
FS:Shell
Last Updated: Oct-13
Login to update fuel prices
SS:
Contact CCO Airport ServicesMore FBO Information
 
Add another FBO Facility Photos Catering Weather Repair Courtesy Rental Type 100LL JetA JetA+ MOGAS 8087
Services Transportation Aviation Fuel Prices: Prices include tax


model-print
model-print
model-print
model-print